Time,TemperatureF,DewpointF,PressureIn,WindDirection,WindDirectionDegrees,WindSpeedMPH,WindSpeedGustMPH,Humidity,HourlyPrecipIn,Conditions,Clouds,dailyrainin,SoftwareType,DateUTC
2013-04-28 00:00:00,53.6,52.2,30.17,East,93,1.0,1.0,95,0.00,,,0.00,Wunderground v.1.13,2013-04-28 04:00:00,
2013-04-28 00:01:00,53.6,52.2,30.17,East,93,1.0,2.0,95,0.00,,,0.00,Wunderground v.1.13,2013-04-28 04:01:00,
2013-04-28 00:02:00,53.6,52.2,30.16,East,93,1.0,2.0,95,0.00,,,0.00,Wunderground v.1.13,2013-04-28 04:02:00,
2013-04-28 00:03:00,53.6,52.2,30.16,East,93,1.0,2.0,95,0.00,,,0.00,Wunderground v.1.13,2013-04-28 04:03:00,
2013-04-28 00:05:00,53.6,52.2,30.16,East,93,0.0,0.0,95,0.00,,,0.00,Wunderground v.1.13,2013-04-28 04:05:00,
2013-04-28 00:08:00,53.6,52.2,30.17,East,93,0.0,0.0,95,0.00,,,0.00,Wunderground v.1.13,2013-04-28 04:08:00,
2013-04-28 00:14:00,53.6,52.2,30.16,East,93,0.0,0.0,95,0.00,,,0.00,Wunderground v.1.13,2013-04-28 04:14:00,
2013-04-28 00:19:00,53.6,52.2,30.16,East,93,0.0,0.0,95,0.00,,,0.00,Wunderground v.1.13,2013-04-28 04:19:00,
2013-04-28 00:25:00,53.6,52.2,30.16,East,93,0.0,0.0,95,0.00,,,0.00,Wunderground v.1.13,2013-04-28 04:25:00,
2013-04-28 00:30:00,53.6,52.2,30.16,East,93,0.0,0.0,95,0.00,,,0.00,Wunderground v.1.13,2013-04-28 04:30:00,
2013-04-28 00:36:00,53.6,52.2,30.16,East,93,0.0,0.0,95,0.00,,,0.00,Wunderground v.1.13,2013-04-28 04:36:00,
2013-04-28 00:42:00,53.5,52.1,30.16,East,93,0.0,0.0,95,0.00,,,0.00,Wunderground v.1.13,2013-04-28 04:42:00,
2013-04-28 00:47:00,53.5,52.1,30.15,East,93,0.0,0.0,95,0.00,,,0.00,Wunderground v.1.13,2013-04-28 04:47:00,
2013-04-28 00:53:00,53.5,52.1,30.15,East,93,0.0,0.0,95,0.00,,,0.00,Wunderground v.1.13,2013-04-28 04:53:00,
2013-04-28 00:59:00,53.5,52.1,30.15,East,93,0.0,0.0,95,0.00,,,0.00,Wunderground v.1.13,2013-04-28 04:59:00,
2013-04-28 01:04:00,53.5,52.1,30.14,East,93,0.0,0.0,95,0.00,,,0.00,Wunderground v.1.13,2013-04-28 05:04:00,
2013-04-28 01:10:00,53.4,52.0,30.14,East,93,0.0,0.0,95,0.00,,,0.00,Wunderground v.1.13,2013-04-28 05:10:00,
2013-04-28 01:16:00,53.3,51.9,30.15,East,93,0.0,0.0,95,0.00,,,0.00,Wunderground v.1.13,2013-04-28 05:16:00,
2013-04-28 01:21:00,53.2,51.8,30.15,East,93,0.0,0.0,95,0.00,,,0.00,Wunderground v.1.13,2013-04-28 05:21:00,
2013-04-28 01:27:00,53.1,51.7,30.15,East,93,0.0,0.0,95,0.00,,,0.00,Wunderground v.1.13,2013-04-28 05:27:00,
2013-04-28 01:32:00,53.0,51.6,30.14,East,93,0.0,0.0,95,0.00,,,0.00,Wunderground v.1.13,2013-04-28 05:32:00,
2013-04-28 01:37:00,52.9,51.5,30.14,East,93,0.0,0.0,95,0.00,,,0.00,Wunderground v.1.13,2013-04-28 05:37:00,
2013-04-28 01:43:00,52.8,51.4,30.13,East,93,0.0,0.0,95,0.00,,,0.00,Wunderground v.1.13,2013-04-28 05:43:00,
2013-04-28 01:49:00,52.7,51.3,30.13,East,93,0.0,0.0,95,0.00,,,0.00,Wunderground v.1.13,2013-04-28 05:49:00,
2013-04-28 01:54:00,52.6,51.2,30.12,East,93,0.0,0.0,95,0.00,,,0.00,Wunderground v.1.13,2013-04-28 05:54:00,
2013-04-28 02:00:00,52.5,51.1,30.11,East,93,0.0,0.0,95,0.00,,,0.00,Wunderground v.1.13,2013-04-28 06:00:00,
2013-04-28 02:06:00,52.3,50.9,30.11,East,93,0.0,0.0,95,0.00,,,0.00,Wunderground v.1.13,2013-04-28 06:06:00,
2013-04-28 02:11:00,52.2,50.8,30.11,East,93,0.0,0.0,95,0.00,,,0.00,Wunderground v.1.13,2013-04-28 06:11:00,
2013-04-28 02:17:00,52.2,50.8,30.11,East,93,0.0,0.0,95,0.00,,,0.00,Wunderground v.1.13,2013-04-28 06:17:00,
2013-04-28 02:23:00,52.1,50.7,30.11,East,93,0.0,0.0,95,0.00,,,0.00,Wunderground v.1.13,2013-04-28 06:23:00,
2013-04-28 02:28:00,51.9,50.5,30.11,East,93,0.0,0.0,95,0.00,,,0.00,Wunderground v.1.13,2013-04-28 06:28:00,
2013-04-28 02:34:00,51.8,50.4,30.12,East,93,0.0,0.0,95,0.00,,,0.00,Wunderground v.1.13,2013-04-28 06:34:00,
2013-04-28 02:40:00,51.7,50.3,30.11,East,93,0.0,0.0,95,0.00,,,0.00,Wunderground v.1.13,2013-04-28 06:40:00,
2013-04-28 02:45:00,51.5,50.1,30.11,East,93,0.0,0.0,95,0.00,,,0.00,Wunderground v.1.13,2013-04-28 06:45:00,
2013-04-28 02:51:00,51.5,50.1,30.10,East,93,0.0,0.0,95,0.00,,,0.00,Wunderground v.1.13,2013-04-28 06:51:00,
2013-04-28 02:57:00,51.5,50.1,30.10,East,93,0.0,0.0,95,0.00,,,0.00,Wunderground v.1.13,2013-04-28 06:57:00,
2013-04-28 03:03:00,51.5,50.1,30.09,East,93,0.0,1.0,95,0.00,,,0.00,Wunderground v.1.13,2013-04-28 07:03:00,
2013-04-28 03:08:00,51.6,50.2,30.09,East,93,0.0,0.0,95,0.00,,,0.00,Wunderground v.1.13,2013-04-28 07:08:00,
2013-04-28 03:14:00,51.6,50.2,30.09,East,93,1.0,3.0,95,0.00,,,0.00,Wunderground v.1.13,2013-04-28 07:14:00,
2013-04-28 03:19:00,51.7,50.3,30.10,East,93,0.0,1.0,95,0.00,,,0.00,Wunderground v.1.13,2013-04-28 07:19:00,
2013-04-28 03:25:00,51.6,50.2,30.09,East,93,0.0,0.0,95,0.00,,,0.00,Wunderground v.1.13,2013-04-28 07:25:00,
2013-04-28 03:31:00,51.6,50.2,30.09,East,93,0.0,0.0,95,0.00,,,0.00,Wunderground v.1.13,2013-04-28 07:31:00,
2013-04-28 03:36:00,51.6,50.2,30.09,East,93,0.0,0.0,95,0.00,,,0.00,Wunderground v.1.13,2013-04-28 07:36:00,
2013-04-28 03:41:00,51.6,50.2,30.09,East,93,0.0,0.0,95,0.00,,,0.00,Wunderground v.1.13,2013-04-28 07:41:00,
2013-04-28 03:47:00,51.6,50.2,30.09,East,93,0.0,0.0,95,0.00,,,0.00,Wunderground v.1.13,2013-04-28 07:47:00,
2013-04-28 03:52:00,51.6,50.2,30.09,East,93,0.0,0.0,95,0.00,,,0.00,Wunderground v.1.13,2013-04-28 07:52:00,
2013-04-28 03:58:00,51.6,50.2,30.09,East,93,0.0,0.0,95,0.00,,,0.00,Wunderground v.1.13,2013-04-28 07:58:00,
2013-04-28 04:04:00,51.7,50.3,30.09,East,93,0.0,0.0,95,0.00,,,0.00,Wunderground v.1.13,2013-04-28 08:04:00,
2013-04-28 04:09:00,51.7,50.6,30.10,East,93,0.0,0.0,96,0.00,,,0.00,Wunderground v.1.13,2013-04-28 08:09:00,
2013-04-28 04:15:00,51.8,50.7,30.11,East,93,0.0,0.0,96,0.00,,,0.00,Wunderground v.1.13,2013-04-28 08:15:00,
2013-04-28 04:21:00,51.9,50.8,30.11,East,93,1.0,3.0,96,0.00,,,0.00,Wunderground v.1.13,2013-04-28 08:21:00,
2013-04-28 04:26:00,52.2,51.1,30.10,East,92,2.0,3.0,96,0.00,,,0.00,Wunderground v.1.13,2013-04-28 08:26:00,
2013-04-28 04:32:00,52.5,51.4,30.11,ENE,63,2.0,4.0,96,0.00,,,0.00,Wunderground v.1.13,2013-04-28 08:32:00,
2013-04-28 04:38:00,52.8,51.7,30.12,North,350,3.0,6.0,96,0.00,,,0.00,Wunderground v.1.13,2013-04-28 08:38:00,
2013-04-28 04:44:00,53.1,52.0,30.14,NW,310,5.0,8.0,96,0.00,,,0.01,Wunderground v.1.13,2013-04-28 08:44:00,
2013-04-28 04:49:00,53.2,52.1,30.13,NW,306,5.0,6.0,96,0.18,,,0.03,Wunderground v.1.13,2013-04-28 08:49:00,
2013-04-28 04:55:00,53.2,52.1,30.13,NW,309,3.0,3.0,96,0.25,,,0.06,Wunderground v.1.13,2013-04-28 08:55:00,
2013-04-28 05:00:00,53.2,52.1,30.13,NW,310,3.0,3.0,96,0.14,,,0.07,Wunderground v.1.13,2013-04-28 09:00:00,
2013-04-28 05:06:00,53.1,51.7,30.13,NNW,333,3.0,4.0,95,0.11,,,0.08,Wunderground v.1.13,2013-04-28 09:06:00,
2013-04-28 05:12:00,53.1,51.7,30.13,NNW,333,2.0,5.0,95,0.13,,,0.09,Wunderground v.1.13,2013-04-28 09:12:00,
2013-04-28 05:18:00,53.0,51.6,30.13,NNW,341,3.0,6.0,95,0.16,,,0.10,Wunderground v.1.13,2013-04-28 09:18:00,
2013-04-28 05:23:00,53.0,51.6,30.13,NNW,341,2.0,3.0,95,0.38,,,0.13,Wunderground v.1.13,2013-04-28 09:23:00,
2013-04-28 05:29:00,53.0,51.6,30.11,North,349,1.0,4.0,95,0.44,,,0.17,Wunderground v.1.13,2013-04-28 09:29:00,
2013-04-28 05:35:00,52.9,51.5,30.10,NNE,18,3.0,3.0,95,0.19,,,0.19,Wunderground v.1.13,2013-04-28 09:35:00,
2013-04-28 05:40:00,52.9,51.5,30.10,NNE,26,4.0,4.0,95,0.10,,,0.20,Wunderground v.1.13,2013-04-28 09:40:00,
2013-04-28 05:46:00,52.8,51.4,30.11,NNE,26,2.0,2.0,95,0.07,,,0.20,Wunderground v.1.13,2013-04-28 09:46:00,
2013-04-28 05:52:00,52.8,51.7,30.11,NNE,26,0.0,1.0,96,0.05,,,0.21,Wunderground v.1.13,2013-04-28 09:52:00,
2013-04-28 05:57:00,52.8,51.7,30.11,NNE,26,0.0,3.0,96,0.05,,,0.21,Wunderground v.1.13,2013-04-28 09:57:00,
2013-04-28 06:02:00,52.7,51.6,30.12,NNE,26,0.0,0.0,96,0.07,,,0.22,Wunderground v.1.13,2013-04-28 10:02:00,
2013-04-28 06:08:00,52.7,51.6,30.11,NNE,26,0.0,0.0,96,0.18,,,0.24,Wunderground v.1.13,2013-04-28 10:08:00,
2013-04-28 06:13:00,52.7,51.3,30.13,NNE,26,0.0,0.0,95,0.13,,,0.25,Wunderground v.1.13,2013-04-28 10:13:00,
2013-04-28 06:19:00,52.7,51.6,30.15,NNE,26,1.0,3.0,96,0.46,,,0.27,Wunderground v.1.13,2013-04-28 10:19:00,
2013-04-28 06:24:00,52.7,51.6,30.15,NNE,26,1.0,2.0,96,0.35,,,0.30,Wunderground v.1.13,2013-04-28 10:24:00,
2013-04-28 06:30:00,52.7,51.6,30.16,NNE,26,1.0,1.0,96,0.19,,,0.32,Wunderground v.1.13,2013-04-28 10:30:00,
2013-04-28 06:35:00,52.7,51.6,30.16,NNW,327,2.0,2.0,96,0.14,,,0.33,Wunderground v.1.13,2013-04-28 10:35:00,
2013-04-28 06:41:00,52.7,51.6,30.16,NNW,327,2.0,2.0,96,0.23,,,0.35,Wunderground v.1.13,2013-04-28 10:41:00,
2013-04-28 06:46:00,52.7,51.6,30.16,NNW,327,0.0,0.0,96,0.32,,,0.38,Wunderground v.1.13,2013-04-28 10:46:00,
2013-04-28 06:52:00,52.6,51.5,30.15,NNW,327,0.0,0.0,96,0.31,,,0.41,Wunderground v.1.13,2013-04-28 10:52:00,
2013-04-28 06:57:00,52.6,51.5,30.15,NNW,327,0.0,0.0,96,0.20,,,0.43,Wunderground v.1.13,2013-04-28 10:57:00,
2013-04-28 07:02:00,52.6,51.5,30.15,NNW,327,0.0,0.0,96,0.24,,,0.45,Wunderground v.1.13,2013-04-28 11:02:00,
2013-04-28 07:08:00,52.5,51.4,30.15,NNW,327,0.0,0.0,96,0.23,,,0.48,Wunderground v.1.13,2013-04-28 11:08:00,
2013-04-28 07:13:00,52.5,51.4,30.16,NNW,327,0.0,0.0,96,0.21,,,0.50,Wunderground v.1.13,2013-04-28 11:13:00,
2013-04-28 07:19:00,52.5,51.4,30.16,NNW,327,0.0,0.0,96,0.26,,,0.52,Wunderground v.1.13,2013-04-28 11:19:00,
2013-04-28 07:25:00,52.4,51.3,30.16,NNW,327,1.0,1.0,96,0.26,,,0.55,Wunderground v.1.13,2013-04-28 11:25:00,
2013-04-28 07:30:00,52.4,51.3,30.17,NNW,327,1.0,1.0,96,0.26,,,0.57,Wunderground v.1.13,2013-04-28 11:30:00,
2013-04-28 07:36:00,52.4,51.3,30.18,NNW,327,0.0,0.0,96,0.30,,,0.60,Wunderground v.1.13,2013-04-28 11:36:00,
2013-04-28 07:42:00,52.4,51.3,30.18,NNW,327,0.0,0.0,96,0.47,,,0.64,Wunderground v.1.13,2013-04-28 11:42:00,
2013-04-28 07:48:00,52.4,51.3,30.19,NNW,327,0.0,0.0,96,0.36,,,0.67,Wunderground v.1.13,2013-04-28 11:48:00,
2013-04-28 07:54:00,52.4,51.3,30.19,NNW,327,0.0,2.0,96,0.37,,,0.71,Wunderground v.1.13,2013-04-28 11:54:00,
2013-04-28 07:59:00,52.4,51.3,30.18,NNW,327,0.0,0.0,96,0.27,,,0.73,Wunderground v.1.13,2013-04-28 11:59:00,
2013-04-28 08:05:00,52.4,51.3,30.15,NNW,343,1.0,3.0,96,0.36,,,0.77,Wunderground v.1.13,2013-04-28 12:05:00,
2013-04-28 08:11:00,52.4,51.3,30.11,ESE,103,5.0,19.0,96,0.53,,,0.82,Wunderground v.1.13,2013-04-28 12:11:00,
2013-04-28 08:16:00,52.5,51.4,30.11,ESE,113,7.0,7.0,96,0.19,,,0.84,Wunderground v.1.13,2013-04-28 12:16:00,
2013-04-28 08:22:00,52.7,51.9,30.11,East,94,4.0,7.0,97,0.08,,,0.84,Wunderground v.1.13,2013-04-28 12:22:00,
2013-04-28 08:27:00,52.8,52.0,30.12,SE,129,3.0,4.0,97,0.05,,,0.84,Wunderground v.1.13,2013-04-28 12:27:00,
2013-04-28 08:32:00,53.0,52.2,30.13,ESE,105,2.0,3.0,97,0.00,,,0.84,Wunderground v.1.13,2013-04-28 12:32:00,
2013-04-28 08:38:00,53.1,52.3,30.13,ESE,105,1.0,1.0,97,0.00,,,0.84,Wunderground v.1.13,2013-04-28 12:38:00,
2013-04-28 08:44:00,53.2,52.4,30.13,ESE,105,1.0,3.0,97,0.00,,,0.84,Wunderground v.1.13,2013-04-28 12:44:00,
2013-04-28 08:49:00,53.4,52.6,30.12,East,86,2.0,5.0,97,0.00,,,0.84,Wunderground v.1.13,2013-04-28 12:49:00,
2013-04-28 08:55:00,53.5,52.7,30.13,East,97,2.0,4.0,97,0.00,,,0.84,Wunderground v.1.13,2013-04-28 12:55:00,
2013-04-28 09:00:00,53.6,52.8,30.13,ESE,123,2.0,3.0,97,0.00,,,0.84,Wunderground v.1.13,2013-04-28 13:00:00,
2013-04-28 09:06:00,53.7,52.9,30.13,ESE,118,3.0,4.0,97,0.00,,,0.84,Wunderground v.1.13,2013-04-28 13:06:00,
2013-04-28 09:12:00,53.7,52.9,30.12,East,101,3.0,5.0,97,0.00,,,0.84,Wunderground v.1.13,2013-04-28 13:12:00,
2013-04-28 09:17:00,53.7,52.9,30.12,East,92,4.0,8.0,97,0.00,,,0.84,Wunderground v.1.13,2013-04-28 13:17:00,
2013-04-28 09:23:00,53.7,52.9,30.13,East,90,5.0,6.0,97,0.00,,,0.84,Wunderground v.1.13,2013-04-28 13:23:00,
2013-04-28 09:29:00,53.8,53.0,30.13,East,88,3.0,6.0,97,0.00,,,0.84,Wunderground v.1.13,2013-04-28 13:29:00,
2013-04-28 09:35:00,53.9,53.1,30.13,ESE,106,3.0,3.0,97,0.00,,,0.84,Wunderground v.1.13,2013-04-28 13:35:00,
2013-04-28 09:40:00,53.8,53.0,30.14,East,96,3.0,5.0,97,0.00,,,0.84,Wunderground v.1.13,2013-04-28 13:40:00,
2013-04-28 09:46:00,53.8,53.0,30.14,East,96,3.0,3.0,97,0.00,,,0.84,Wunderground v.1.13,2013-04-28 13:46:00,
2013-04-28 09:52:00,53.8,53.0,30.15,East,96,0.0,1.0,97,0.00,,,0.84,Wunderground v.1.13,2013-04-28 13:52:00,
2013-04-28 09:58:00,53.9,53.1,30.16,East,96,0.0,0.0,97,0.00,,,0.84,Wunderground v.1.13,2013-04-28 13:58:00,
2013-04-28 10:04:00,54.0,53.2,30.17,East,96,0.0,0.0,97,0.00,,,0.84,Wunderground v.1.13,2013-04-28 14:04:00,
2013-04-28 10:10:00,54.0,53.2,30.17,East,96,0.0,0.0,97,0.00,,,0.85,Wunderground v.1.13,2013-04-28 14:10:00,
2013-04-28 10:15:00,53.9,53.1,30.17,East,96,0.0,0.0,97,0.08,,,0.86,Wunderground v.1.13,2013-04-28 14:15:00,
2013-04-28 10:21:00,53.9,53.1,30.18,East,96,0.0,0.0,97,0.13,,,0.87,Wunderground v.1.13,2013-04-28 14:21:00,
2013-04-28 10:27:00,53.9,53.1,30.18,East,96,0.0,0.0,97,0.18,,,0.89,Wunderground v.1.13,2013-04-28 14:27:00,
2013-04-28 10:33:00,53.8,53.0,30.18,East,96,0.0,0.0,97,0.19,,,0.91,Wunderground v.1.13,2013-04-28 14:33:00,
2013-04-28 10:38:00,53.8,53.0,30.19,East,96,0.0,0.0,97,0.21,,,0.93,Wunderground v.1.13,2013-04-28 14:38:00,
2013-04-28 10:44:00,53.9,53.1,30.19,East,96,0.0,0.0,97,0.32,,,0.96,Wunderground v.1.13,2013-04-28 14:44:00,
2013-04-28 10:49:00,53.9,53.1,30.19,East,96,0.0,0.0,97,0.34,,,0.99,Wunderground v.1.13,2013-04-28 14:49:00,
2013-04-28 10:55:00,53.9,53.1,30.19,East,96,0.0,0.0,97,0.19,,,1.01,Wunderground v.1.13,2013-04-28 14:55:00,
2013-04-28 11:00:00,53.9,53.1,30.19,East,96,0.0,0.0,97,0.18,,,1.03,Wunderground v.1.13,2013-04-28 15:00:00,
2013-04-28 11:05:00,53.9,53.1,30.20,East,96,0.0,0.0,97,0.15,,,1.04,Wunderground v.1.13,2013-04-28 15:05:00,
2013-04-28 11:11:00,53.9,53.1,30.20,East,96,0.0,0.0,97,0.13,,,1.05,Wunderground v.1.13,2013-04-28 15:11:00,
2013-04-28 11:17:00,53.9,53.1,30.19,East,96,0.0,0.0,97,0.16,,,1.07,Wunderground v.1.13,2013-04-28 15:17:00,
2013-04-28 11:22:00,53.9,53.1,30.19,East,96,0.0,3.0,97,0.13,,,1.08,Wunderground v.1.13,2013-04-28 15:22:00,
2013-04-28 11:28:00,54.0,53.2,30.18,East,96,1.0,3.0,97,0.08,,,1.09,Wunderground v.1.13,2013-04-28 15:28:00,
2013-04-28 11:34:00,53.9,53.1,30.18,East,100,3.0,6.0,97,0.08,,,1.09,Wunderground v.1.13,2013-04-28 15:34:00,
2013-04-28 11:40:00,53.7,52.9,30.18,SE,132,5.0,5.0,97,0.05,,,1.10,Wunderground v.1.13,2013-04-28 15:40:00,
2013-04-28 11:46:00,53.5,52.7,30.17,ESE,111,5.0,5.0,97,0.10,,,1.11,Wunderground v.1.13,2013-04-28 15:46:00,
2013-04-28 11:52:00,53.5,52.7,30.17,ESE,110,3.0,4.0,97,0.15,,,1.12,Wunderground v.1.13,2013-04-28 15:52:00,
2013-04-28 11:57:00,53.6,52.8,30.17,ESE,109,2.0,4.0,97,0.13,,,1.13,Wunderground v.1.13,2013-04-28 15:57:00,
2013-04-28 12:03:00,53.7,52.9,30.16,ESE,114,3.0,8.0,97,0.10,,,1.14,Wunderground v.1.13,2013-04-28 16:03:00,
2013-04-28 12:09:00,53.8,53.0,30.16,ESE,113,5.0,10.0,97,0.11,,,1.15,Wunderground v.1.13,2013-04-28 16:09:00,
2013-04-28 12:15:00,53.7,52.9,30.16,ESE,107,5.0,5.0,97,0.09,,,1.16,Wunderground v.1.13,2013-04-28 16:15:00,
2013-04-28 12:20:00,53.5,52.7,30.16,ESE,113,6.0,7.0,97,0.08,,,1.17,Wunderground v.1.13,2013-04-28 16:20:00,
2013-04-28 12:26:00,53.4,52.6,30.15,ESE,103,6.0,6.0,97,0.08,,,1.17,Wunderground v.1.13,2013-04-28 16:26:00,
2013-04-28 12:31:00,53.4,52.6,30.16,ESE,116,4.0,5.0,97,0.05,,,1.17,Wunderground v.1.13,2013-04-28 16:31:00,
2013-04-28 12:37:00,53.5,52.7,30.15,SE,125,3.0,6.0,97,0.00,,,1.18,Wunderground v.1.13,2013-04-28 16:37:00,
2013-04-28 12:43:00,53.6,52.8,30.15,SE,126,3.0,7.0,97,0.00,,,1.18,Wunderground v.1.13,2013-04-28 16:43:00,
2013-04-28 12:48:00,53.6,52.8,30.15,SE,124,4.0,9.0,97,0.08,,,1.19,Wunderground v.1.13,2013-04-28 16:48:00,
2013-04-28 12:54:00,53.7,52.9,30.14,ESE,123,4.0,5.0,97,0.10,,,1.20,Wunderground v.1.13,2013-04-28 16:54:00,
2013-04-28 13:00:00,53.8,53.0,30.13,East,90,5.0,5.0,97,0.10,,,1.21,Wunderground v.1.13,2013-04-28 17:00:00,
2013-04-28 13:05:00,53.9,53.1,30.13,East,90,4.0,4.0,97,0.08,,,1.22,Wunderground v.1.13,2013-04-28 17:05:00,
2013-04-28 13:10:00,54.0,53.2,30.12,East,90,2.0,2.0,97,0.08,,,1.22,Wunderground v.1.13,2013-04-28 17:10:00,
2013-04-28 13:16:00,54.2,53.4,30.12,East,94,3.0,4.0,97,0.05,,,1.23,Wunderground v.1.13,2013-04-28 17:16:00,
2013-04-28 13:21:00,54.3,53.5,30.12,East,92,4.0,4.0,97,0.05,,,1.23,Wunderground v.1.13,2013-04-28 17:21:00,
2013-04-28 13:27:00,54.4,53.6,30.12,East,96,3.0,5.0,97,0.06,,,1.24,Wunderground v.1.13,2013-04-28 17:27:00,
2013-04-28 13:33:00,54.6,53.8,30.13,East,96,2.0,3.0,97,0.08,,,1.25,Wunderground v.1.13,2013-04-28 17:33:00,
2013-04-28 13:38:00,54.8,54.0,30.12,East,101,2.0,2.0,97,0.08,,,1.25,Wunderground v.1.13,2013-04-28 17:38:00,
2013-04-28 13:44:00,55.0,54.2,30.12,ESE,103,1.0,1.0,97,0.05,,,1.26,Wunderground v.1.13,2013-04-28 17:44:00,
2013-04-28 13:50:00,55.2,54.6,30.13,ESE,113,0.0,5.0,98,0.05,,,1.26,Wunderground v.1.13,2013-04-28 17:50:00,
2013-04-28 13:55:00,55.3,54.5,30.13,SSE,148,2.0,2.0,97,0.07,,,1.27,Wunderground v.1.13,2013-04-28 17:55:00,
2013-04-28 14:01:00,55.3,54.5,30.09,East,90,4.0,7.0,97,0.11,,,1.28,Wunderground v.1.13,2013-04-28 18:01:00,
2013-04-28 14:06:00,55.4,54.6,30.09,South,169,6.0,11.0,97,0.08,,,1.28,Wunderground v.1.13,2013-04-28 18:06:00,
2013-04-28 14:11:00,55.3,54.5,30.09,SSE,152,7.0,7.0,97,0.05,,,1.28,Wunderground v.1.13,2013-04-28 18:11:00,
2013-04-28 14:17:00,55.3,54.5,30.09,SSE,165,7.0,9.0,97,0.04,,,1.29,Wunderground v.1.13,2013-04-28 18:17:00,
2013-04-28 14:23:00,55.3,54.5,30.07,SE,142,8.0,13.0,97,0.04,,,1.29,Wunderground v.1.13,2013-04-28 18:23:00,
2013-04-28 14:28:00,55.1,54.3,30.05,SE,137,10.0,19.0,97,0.05,,,1.30,Wunderground v.1.13,2013-04-28 18:28:00,
2013-04-28 14:33:00,55.1,54.3,30.05,SE,133,11.0,13.0,97,0.05,,,1.30,Wunderground v.1.13,2013-04-28 18:33:00,
2013-04-28 14:39:00,55.1,54.3,30.06,ESE,113,10.0,16.0,97,0.04,,,1.30,Wunderground v.1.13,2013-04-28 18:39:00,
2013-04-28 14:45:00,55.3,54.2,30.04,SSW,205,11.0,11.0,96,0.00,,,1.30,Wunderground v.1.13,2013-04-28 18:45:00,
2013-04-28 14:50:00,55.3,54.2,30.05,East,98,11.0,11.0,96,0.00,,,1.31,Wunderground v.1.13,2013-04-28 18:50:00,
2013-04-28 14:56:00,55.5,54.4,30.06,SSW,198,10.0,11.0,96,0.00,,,1.31,Wunderground v.1.13,2013-04-28 18:56:00,
2013-04-28 15:01:00,55.6,54.5,30.06,South,171,7.0,8.0,96,0.00,,,1.31,Wunderground v.1.13,2013-04-28 19:01:00,
2013-04-28 15:07:00,55.8,54.7,30.07,SW,235,3.0,5.0,96,0.00,,,1.31,Wunderground v.1.13,2013-04-28 19:07:00,
2013-04-28 15:13:00,56.0,54.9,30.06,SSE,167,4.0,11.0,96,0.00,,,1.31,Wunderground v.1.13,2013-04-28 19:13:00,
2013-04-28 15:18:00,56.2,55.1,30.07,South,184,5.0,10.0,96,0.00,,,1.32,Wunderground v.1.13,2013-04-28 19:18:00,
2013-04-28 15:24:00,56.4,55.0,30.06,SSE,161,5.0,7.0,95,0.00,,,1.32,Wunderground v.1.13,2013-04-28 19:24:00,
2013-04-28 15:30:00,56.6,55.5,30.05,SE,128,4.0,4.0,96,0.05,,,1.33,Wunderground v.1.13,2013-04-28 19:30:00,
2013-04-28 15:36:00,56.7,55.6,30.05,ESE,110,4.0,5.0,96,0.05,,,1.33,Wunderground v.1.13,2013-04-28 19:36:00,
2013-04-28 15:41:00,56.9,55.5,30.05,SSE,150,5.0,5.0,95,0.06,,,1.34,Wunderground v.1.13,2013-04-28 19:41:00,
2013-04-28 15:47:00,57.1,56.0,30.05,SSE,148,2.0,3.0,96,0.06,,,1.34,Wunderground v.1.13,2013-04-28 19:47:00,
2013-04-28 15:52:00,57.3,56.2,30.05,SSE,148,0.0,1.0,96,0.04,,,1.34,Wunderground v.1.13,2013-04-28 19:52:00,
2013-04-28 15:58:00,57.3,56.2,30.05,SSE,148,0.0,0.0,96,0.00,,,1.34,Wunderground v.1.13,2013-04-28 19:58:00,
2013-04-28 16:04:00,57.5,56.1,30.05,SW,219,1.0,3.0,95,0.00,,,1.34,Wunderground v.1.13,2013-04-28 20:04:00,
2013-04-28 16:10:00,57.7,56.6,30.05,SW,232,1.0,1.0,96,0.00,,,1.34,Wunderground v.1.13,2013-04-28 20:10:00,
2013-04-28 16:15:00,57.8,56.7,30.03,SW,218,1.0,4.0,96,0.00,,,1.34,Wunderground v.1.13,2013-04-28 20:15:00,
2013-04-28 16:21:00,57.9,56.5,30.03,SW,215,1.0,1.0,95,0.00,,,1.34,Wunderground v.1.13,2013-04-28 20:21:00,
2013-04-28 16:26:00,58.0,56.6,30.02,SSE,153,1.0,1.0,95,0.00,,,1.34,Wunderground v.1.13,2013-04-28 20:26:00,
2013-04-28 16:32:00,58.1,56.7,30.02,SSE,153,1.0,1.0,95,0.00,,,1.34,Wunderground v.1.13,2013-04-28 20:32:00,
2013-04-28 16:38:00,58.2,56.8,30.02,SSE,153,0.0,4.0,95,0.00,,,1.34,Wunderground v.1.13,2013-04-28 20:38:00,
2013-04-28 16:43:00,58.1,56.7,30.02,SE,142,1.0,2.0,95,0.00,,,1.34,Wunderground v.1.13,2013-04-28 20:43:00,
2013-04-28 16:49:00,58.1,56.7,30.02,ESE,115,1.0,3.0,95,0.00,,,1.34,Wunderground v.1.13,2013-04-28 20:49:00,
2013-04-28 16:55:00,58.2,56.8,30.01,ESE,115,0.0,0.0,95,0.00,,,1.34,Wunderground v.1.13,2013-04-28 20:55:00,
2013-04-28 17:01:00,58.4,57.0,30.01,ESE,115,0.0,0.0,95,0.00,,,1.34,Wunderground v.1.13,2013-04-28 21:01:00,
2013-04-28 17:06:00,58.5,57.1,30.02,ESE,115,0.0,0.0,95,0.00,,,1.34,Wunderground v.1.13,2013-04-28 21:06:00,
2013-04-28 17:12:00,58.5,57.1,30.00,ESE,115,0.0,0.0,95,0.00,,,1.34,Wunderground v.1.13,2013-04-28 21:12:00,
2013-04-28 17:18:00,58.4,56.7,29.98,East,100,2.0,5.0,94,0.00,,,1.34,Wunderground v.1.13,2013-04-28 21:18:00,
2013-04-28 17:23:00,58.3,56.6,30.00,East,87,3.0,4.0,94,0.00,,,1.34,Wunderground v.1.13,2013-04-28 21:23:00,
2013-04-28 17:29:00,58.1,56.4,30.01,East,86,2.0,4.0,94,0.00,,,1.34,Wunderground v.1.13,2013-04-28 21:29:00,
2013-04-28 17:35:00,58.1,56.4,30.01,East,86,1.0,1.0,94,0.00,,,1.34,Wunderground v.1.13,2013-04-28 21:35:00,
2013-04-28 17:40:00,58.3,56.6,30.02,NW,320,2.0,4.0,94,0.00,,,1.34,Wunderground v.1.13,2013-04-28 21:40:00,
2013-04-28 17:46:00,58.4,56.7,30.02,NW,323,2.0,2.0,94,0.00,,,1.34,Wunderground v.1.13,2013-04-28 21:46:00,
2013-04-28 17:52:00,58.3,56.6,30.01,NW,323,0.0,1.0,94,0.00,,,1.34,Wunderground v.1.13,2013-04-28 21:52:00,
2013-04-28 17:58:00,58.2,56.5,30.00,NW,326,0.0,0.0,94,0.00,,,1.34,Wunderground v.1.13,2013-04-28 21:58:00,
2013-04-28 18:04:00,58.2,56.5,30.00,NW,326,0.0,4.0,94,0.00,,,1.34,Wunderground v.1.13,2013-04-28 22:04:00,
2013-04-28 18:09:00,58.1,56.4,30.00,NW,326,0.0,0.0,94,0.00,,,1.34,Wunderground v.1.13,2013-04-28 22:09:00,
2013-04-28 18:15:00,58.1,56.4,30.01,NNW,327,1.0,1.0,94,0.00,,,1.34,Wunderground v.1.13,2013-04-28 22:15:00,
2013-04-28 18:20:00,57.9,56.2,30.01,North,355,2.0,4.0,94,0.00,,,1.34,Wunderground v.1.13,2013-04-28 22:20:00,
2013-04-28 18:26:00,57.8,56.1,30.02,NNW,341,3.0,3.0,94,0.00,,,1.34,Wunderground v.1.13,2013-04-28 22:26:00,
2013-04-28 18:32:00,57.7,56.0,30.02,NNW,341,1.0,1.0,94,0.00,,,1.34,Wunderground v.1.13,2013-04-28 22:32:00,
2013-04-28 18:38:00,57.6,55.9,30.01,NNW,341,0.0,0.0,94,0.00,,,1.34,Wunderground v.1.13,2013-04-28 22:38:00,
2013-04-28 18:43:00,57.5,55.8,30.02,NNW,341,0.0,0.0,94,0.00,,,1.34,Wunderground v.1.13,2013-04-28 22:43:00,
2013-04-28 18:49:00,57.5,55.8,30.01,NNW,341,0.0,0.0,94,0.00,,,1.34,Wunderground v.1.13,2013-04-28 22:49:00,
2013-04-28 18:54:00,57.5,55.8,30.01,NNW,341,0.0,0.0,94,0.00,,,1.34,Wunderground v.1.13,2013-04-28 22:54:00,
2013-04-28 19:00:00,57.4,55.7,30.01,NNW,341,0.0,0.0,94,0.00,,,1.34,Wunderground v.1.13,2013-04-28 23:00:00,
2013-04-28 19:05:00,57.4,55.7,30.00,NNW,341,0.0,0.0,94,0.00,,,1.34,Wunderground v.1.13,2013-04-28 23:05:00,
2013-04-28 19:11:00,57.3,55.6,30.00,NNW,341,0.0,0.0,94,0.00,,,1.34,Wunderground v.1.13,2013-04-28 23:11:00,
2013-04-28 19:16:00,57.2,55.5,30.00,NNW,341,0.0,0.0,94,0.00,,,1.34,Wunderground v.1.13,2013-04-28 23:16:00,
2013-04-28 19:22:00,57.2,55.5,30.00,NNW,341,0.0,0.0,94,0.00,,,1.34,Wunderground v.1.13,2013-04-28 23:22:00,
2013-04-28 19:27:00,57.1,55.7,30.00,NNW,341,0.0,0.0,95,0.00,,,1.34,Wunderground v.1.13,2013-04-28 23:27:00,
2013-04-28 19:33:00,57.0,55.6,30.00,NNW,341,0.0,0.0,95,0.00,,,1.34,Wunderground v.1.13,2013-04-28 23:33:00,
2013-04-28 19:39:00,56.9,55.5,29.99,NNW,341,0.0,0.0,95,0.00,,,1.34,Wunderground v.1.13,2013-04-28 23:39:00,
2013-04-28 19:45:00,56.8,55.4,29.99,NNW,341,0.0,0.0,95,0.00,,,1.34,Wunderground v.1.13,2013-04-28 23:45:00,
2013-04-28 19:50:00,56.8,55.4,30.00,NNW,341,0.0,0.0,95,0.00,,,1.34,Wunderground v.1.13,2013-04-28 23:50:00,
2013-04-28 19:56:00,56.7,55.3,30.00,NNW,341,0.0,0.0,95,0.00,,,1.34,Wunderground v.1.13,2013-04-28 23:56:00,
2013-04-28 20:01:00,56.7,55.3,30.00,NNW,341,0.0,0.0,95,0.00,,,1.34,Wunderground v.1.13,2013-04-29 00:01:00,
2013-04-28 20:07:00,56.6,55.2,30.00,NNW,341,0.0,0.0,95,0.00,,,1.34,Wunderground v.1.13,2013-04-29 00:07:00,
2013-04-28 20:13:00,56.4,55.0,30.01,NNW,341,0.0,0.0,95,0.00,,,1.34,Wunderground v.1.13,2013-04-29 00:13:00,
2013-04-28 20:19:00,56.3,54.9,30.02,NNW,341,0.0,0.0,95,0.00,,,1.34,Wunderground v.1.13,2013-04-29 00:19:00,
2013-04-28 20:24:00,56.2,54.8,30.02,NNW,341,0.0,0.0,95,0.00,,,1.34,Wunderground v.1.13,2013-04-29 00:24:00,
2013-04-28 20:30:00,56.0,54.6,30.01,NNW,341,0.0,0.0,95,0.00,,,1.34,Wunderground v.1.13,2013-04-29 00:30:00,
2013-04-28 20:36:00,55.8,54.4,30.02,NNW,341,0.0,0.0,95,0.00,,,1.34,Wunderground v.1.13,2013-04-29 00:36:00,
2013-04-28 20:42:00,55.6,54.2,30.02,NNW,341,0.0,0.0,95,0.00,,,1.34,Wunderground v.1.13,2013-04-29 00:42:00,
2013-04-28 20:48:00,55.5,54.1,30.02,NNW,341,0.0,0.0,95,0.00,,,1.34,Wunderground v.1.13,2013-04-29 00:48:00,
2013-04-28 20:54:00,55.3,53.9,30.02,NNW,341,0.0,0.0,95,0.00,,,1.34,Wunderground v.1.13,2013-04-29 00:54:00,
2013-04-28 20:59:00,55.2,53.8,30.02,NNW,341,0.0,0.0,95,0.00,,,1.34,Wunderground v.1.13,2013-04-29 00:59:00,
2013-04-28 21:05:00,55.1,53.7,30.02,NNW,341,0.0,0.0,95,0.00,,,1.34,Wunderground v.1.13,2013-04-29 01:05:00,
2013-04-28 21:11:00,55.0,53.6,30.03,NNW,341,0.0,0.0,95,0.00,,,1.34,Wunderground v.1.13,2013-04-29 01:11:00,
2013-04-28 21:17:00,54.8,53.4,30.03,NNW,341,0.0,0.0,95,0.00,,,1.34,Wunderground v.1.13,2013-04-29 01:17:00,
2013-04-28 21:22:00,54.7,53.3,30.03,NNW,341,0.0,0.0,95,0.00,,,1.34,Wunderground v.1.13,2013-04-29 01:22:00,
2013-04-28 21:28:00,54.6,53.2,30.03,NNW,341,0.0,0.0,95,0.00,,,1.34,Wunderground v.1.13,2013-04-29 01:28:00,
2013-04-28 21:33:00,54.6,53.2,30.03,NNW,341,0.0,0.0,95,0.00,,,1.34,Wunderground v.1.13,2013-04-29 01:33:00,
2013-04-28 21:38:00,54.5,53.1,30.03,NNW,341,0.0,0.0,95,0.00,,,1.34,Wunderground v.1.13,2013-04-29 01:38:00,
2013-04-28 21:44:00,54.5,53.1,30.03,NNW,341,0.0,0.0,95,0.00,,,1.34,Wunderground v.1.13,2013-04-29 01:44:00,
2013-04-28 21:50:00,54.5,53.1,30.04,NNW,341,0.0,0.0,95,0.00,,,1.34,Wunderground v.1.13,2013-04-29 01:50:00,
2013-04-28 21:56:00,54.4,53.0,30.04,NNW,341,0.0,0.0,95,0.00,,,1.34,Wunderground v.1.13,2013-04-29 01:56:00,
2013-04-28 22:01:00,54.3,52.9,30.04,NNW,341,0.0,0.0,95,0.00,,,1.34,Wunderground v.1.13,2013-04-29 02:01:00,
2013-04-28 22:07:00,54.4,53.3,30.04,NNW,341,0.0,0.0,96,0.00,,,1.34,Wunderground v.1.13,2013-04-29 02:07:00,
2013-04-28 22:12:00,54.4,53.3,30.04,NNW,341,0.0,0.0,96,0.00,,,1.34,Wunderground v.1.13,2013-04-29 02:12:00,
2013-04-28 22:18:00,54.4,53.3,30.04,NNW,341,0.0,0.0,96,0.00,,,1.34,Wunderground v.1.13,2013-04-29 02:18:00,
2013-04-28 22:23:00,54.5,53.4,30.04,NNW,341,0.0,0.0,96,0.00,,,1.34,Wunderground v.1.13,2013-04-29 02:23:00,
2013-04-28 22:29:00,54.5,53.4,30.04,NNW,341,0.0,0.0,96,0.00,,,1.34,Wunderground v.1.13,2013-04-29 02:29:00,
2013-04-28 22:35:00,54.4,53.3,30.04,NNW,341,0.0,0.0,96,0.00,,,1.34,Wunderground v.1.13,2013-04-29 02:35:00,
2013-04-28 22:41:00,54.4,53.3,30.04,NNW,341,0.0,0.0,96,0.00,,,1.34,Wunderground v.1.13,2013-04-29 02:41:00,
2013-04-28 22:47:00,54.3,53.2,30.04,NNW,341,0.0,0.0,96,0.00,,,1.34,Wunderground v.1.13,2013-04-29 02:47:00,
2013-04-28 22:52:00,54.2,53.1,30.04,NNW,341,0.0,0.0,96,0.00,,,1.34,Wunderground v.1.13,2013-04-29 02:52:00,
2013-04-28 22:58:00,54.1,53.0,30.05,NNW,341,0.0,0.0,96,0.00,,,1.34,Wunderground v.1.13,2013-04-29 02:58:00,
2013-04-28 23:03:00,54.1,53.0,30.04,NNW,341,0.0,0.0,96,0.00,,,1.34,Wunderground v.1.13,2013-04-29 03:03:00,
2013-04-28 23:08:00,54.0,52.9,30.05,NNW,341,0.0,0.0,96,0.00,,,1.34,Wunderground v.1.13,2013-04-29 03:08:00,
2013-04-28 23:14:00,54.0,52.9,30.05,NNW,341,0.0,0.0,96,0.00,,,1.34,Wunderground v.1.13,2013-04-29 03:14:00,
2013-04-28 23:19:00,53.9,52.8,30.04,NNW,341,0.0,0.0,96,0.00,,,1.34,Wunderground v.1.13,2013-04-29 03:19:00,
2013-04-28 23:25:00,53.9,52.8,30.04,NNW,341,0.0,0.0,96,0.00,,,1.34,Wunderground v.1.13,2013-04-29 03:25:00,
2013-04-28 23:31:00,53.8,52.7,30.05,NNW,341,0.0,0.0,96,0.00,,,1.34,Wunderground v.1.13,2013-04-29 03:31:00,
2013-04-28 23:37:00,53.7,52.6,30.05,NNW,341,0.0,0.0,96,0.00,,,1.34,Wunderground v.1.13,2013-04-29 03:37:00,
2013-04-28 23:42:00,53.7,52.6,30.05,NNW,341,0.0,0.0,96,0.00,,,1.34,Wunderground v.1.13,2013-04-29 03:42:00,
2013-04-28 23:48:00,53.7,52.6,30.05,NNW,341,0.0,0.0,96,0.00,,,1.34,Wunderground v.1.13,2013-04-29 03:48:00,
2013-04-28 23:53:00,53.7,52.9,30.05,NNW,341,0.0,0.0,97,0.00,,,1.34,Wunderground v.1.13,2013-04-29 03:53:00,
2013-04-28 23:59:00,53.7,52.9,30.05,NNW,341,0.0,0.0,97,0.00,,,1.34,Wunderground v.1.13,2013-04-29 03:59:00,